Location: Cutler
(25.6150°N, 80.3110°W)
Time: 17:12:35
(UTC-04:00)

Vanguard 3 - All Passes

Search period start: 22 June 2018 00:00
Search period end: 02 July 2018 00:00
Orbit: 508 x 3264 km, 33.3° (Epoch: 22 June)

Date Brightness Start Highest point End Pass type
(mag) Time Alt. Az. Time Alt. Az. Time Alt. Az.
22 Jun - 02:19:19 10° SW 02:23:05 55° SSE 02:28:28 10° ENE visible
22 Jun - 04:30:12 10° W 04:35:11 50° N 04:43:42 10° ENE visible
22 Jun - 06:41:33 10° WNW 06:48:56 58° NNE 07:02:21 10° E daylight
22 Jun - 08:53:02 10° WNW 09:03:38 83° SSW 09:21:44 10° ESE daylight
22 Jun - 11:06:23 10° W 11:19:25 42° SW 11:37:06 10° SSE daylight
22 Jun - 13:28:07 10° WSW 13:35:56 14° SW 13:44:09 10° SSW daylight
23 Jun - 01:07:06 10° SSW 01:09:57 21° SE 01:13:10 10° E night (unlit)
23 Jun - 03:16:56 10° W 03:21:05 63° NNW 03:27:37 10° ENE visible
23 Jun - 05:28:18 10° WNW 05:34:07 48° N 05:44:16 10° ENE visible
23 Jun - 07:39:28 10° WNW 07:48:05 77° NNE 08:03:46 10° ESE daylight
23 Jun - 09:51:29 10° WNW 10:03:06 57° SSW 10:21:16 10° SE daylight
23 Jun - 12:07:35 10° W 12:19:15 24° SW 12:33:13 10° S daylight
24 Jun - 02:03:50 10° WSW 02:07:32 72° SSE 02:12:30 10° ENE visible
24 Jun - 04:15:04 10° WNW 04:19:40 44° N 04:27:13 10° ENE visible
24 Jun - 06:26:13 10° WNW 06:33:04 59° NNE 06:45:32 10° E daylight
24 Jun - 08:37:29 10° WNW 08:47:14 76° SSW 09:04:20 10° SE daylight
24 Jun - 10:50:56 10° W 11:02:46 36° SSW 11:19:08 10° SSE daylight
24 Jun - 13:17:09 10° SW 13:19:30 10° SW 13:21:53 10° SSW daylight
25 Jun - 00:51:06 10° SSW 00:54:19 28° SSE 00:57:46 10° E night (unlit)
25 Jun - 03:01:44 10° W 03:05:38 51° NNW 03:11:23 10° ENE visible
25 Jun - 05:13:05 10° WNW 05:18:28 46° N 05:27:42 10° E visible
25 Jun - 07:24:01 10° WNW 07:31:57 83° NNE 07:46:40 10° ESE daylight
25 Jun - 09:35:59 10° W 09:46:37 49° SSW 10:03:32 10° SE daylight
25 Jun - 11:52:53 10° WSW 12:02:43 19° SW 12:14:29 10° S daylight
25 Jun - 23:39:47 10° SSE 23:40:58 11° SSE 23:42:06 10° SE night (unlit)
26 Jun - 01:48:23 10° WSW 01:52:02 86° NNW 01:56:35 10° ENE visible
26 Jun - 03:59:55 10° WNW 04:04:12 39° N 04:10:52 10° ENE visible
26 Jun - 06:10:53 10° WNW 06:17:14 61° NNE 06:28:46 10° E daylight
26 Jun - 08:22:00 10° WNW 08:30:58 67° SSW 08:46:52 10° SE daylight
26 Jun - 10:35:44 10° W 10:46:18 29° SSW 11:00:55 10° SSE daylight
27 Jun - 00:35:12 10° SW 00:38:45 39° SSE 00:42:20 10° E night (unlit)
27 Jun - 02:46:33 10° W 02:50:12 41° N 02:55:15 10° ENE visible
27 Jun - 04:57:52 10° WNW 05:02:51 45° NNE 05:11:14 10° E visible
27 Jun - 07:08:36 10° WNW 07:15:56 89° SSW 07:29:33 10° ESE daylight
27 Jun - 09:20:38 10° W 09:30:17 41° SSW 09:45:38 10° SSE daylight
27 Jun - 11:38:57 10° WSW 11:46:22 15° SW 11:55:00 10° S daylight
27 Jun - 23:22:32 10° SSW 23:25:23 17° SSE 23:27:53 10° ESE night (unlit)
28 Jun - 01:32:57 10° WSW 01:36:35 66° NNW 01:40:45 10° ENE visible
28 Jun - 03:44:46 10° WNW 03:48:44 35° N 03:54:38 10° ENE visible
28 Jun - 05:55:33 10° WNW 06:01:25 65° NNE 06:12:03 10° ESE visible
28 Jun - 08:06:37 10° WNW 08:14:48 57° SSW 08:29:20 10° SE daylight
28 Jun - 10:20:52 10° WSW 10:29:59 24° SSW 10:42:23 10° SSE daylight
29 Jun - 00:19:19 10° SW 00:23:15 55° SSE 00:26:53 10° ENE night (unlit)
29 Jun - 02:31:21 10° WNW 02:34:48 35° N 02:39:15 10° ENE visible
29 Jun - 04:42:37 10° WNW 04:47:17 45° NNE 04:54:53 10° E visible
29 Jun - 06:53:15 10° WNW 06:59:58 79° SSW 07:12:27 10° ESE daylight
29 Jun - 09:05:28 10° W 09:14:06 34° SSW 09:27:35 10° SSE daylight
29 Jun - 11:27:27 10° SW 11:30:12 11° SSW 11:33:08 10° SSW daylight
29 Jun - 23:05:52 10° SSW 23:09:50 25° SSE 23:13:01 10° E night (unlit)
30 Jun - 01:17:31 10° W 01:21:10 50° NNW 01:25:00 10° ENE night (unlit)
30 Jun - 03:29:35 10° WNW 03:33:18 33° N 03:38:32 10° ENE visible
30 Jun - 05:40:13 10° WNW 05:45:39 72° NNE 05:55:24 10° ESE visible
30 Jun - 07:51:21 10° W 07:58:47 47° SSW 08:11:44 10° SE daylight
30 Jun - 10:06:29 10° WSW 10:13:51 18° SSW 10:23:23 10° S daylight
30 Jun - 21:53:04 10° S 21:56:01 14° SSE 21:58:27 10° ESE visible
01 Jul - 00:03:27 10° WSW 00:07:47 77° SSE 00:11:25 10° ENE night (unlit)
01 Jul - 02:16:07 10° WNW 02:19:26 30° N 02:23:21 10° ENE visible
01 Jul - 04:27:21 10° WNW 04:31:42 46° NNE 04:38:38 10° E visible
01 Jul - 06:37:55 10° WNW 06:44:05 68° SSW 06:55:21 10° SE daylight
01 Jul - 08:50:33 10° W 08:58:04 27° SSW 09:09:20 10° SSE daylight
01 Jul - 22:49:22 10° SW 22:54:20 36° SSE 22:57:57 10° E visible
